Find Starlink 35200

NORAD ID: 65855 Int'l Des: 2025-223 Owner: SPXS Country: US Constellation: starlink operational
LEOCIRCULAR

現在のビュー

3D地球を読み込み中...

Starlink 35200について

説明を読み込み中...

次回通過

Passes for default location (London). Set your location on the main map for personalized predictions.

高度履歴

Loading altitude history...

軌道要素

1 65855U 25223B 26146.60082122 .00024909 00000-0 85019-3 0 9993
2 65855 53.1614 292.3205 0001174 124.9874 235.1237 15.30204749 36133
Epoch: May 26, 2026 • Age: 8 hours

現在のステータス

高度 475.7 km
速度 7.63 km/s
衛星直下点 18.31°N, 85.2°E
打ち上げ日 Oct 3, 2025
運用期間 0.6 years
タイプ internet

技術仕様

分類 Payload
質量 575.00 kg
乾燥質量 530.00 kg
総質量 575.00 kg
長さ 0.30 m
直径 4.10 m
スパン 29.00 m
形状 Box + pan
製造者 SPXS
バスタイプ Starlink V2MO
フェーズステータス In Orbit
所有者/国 SPXS/US

Most Searched